Muenster, Germany

4:18 PM CEST on April 25, 2018 (GMT +0200)
Munster-Osnabruck

Weather History for EDDG - October, 2013

Change the Weather History Date:

Thursday, October 31, 2013

  Actual Average Record
Temperature  
Mean Temperature 46 °F -  
Max Temperature 55 °F 46 °F 71 °F (2005)
Min Temperature 38 °F 36 °F 28 °F (1997)
Degree Days  
Heating Degree Days 18    
Moisture  
Dew Point 41 °F    
Average Humidity 76    
Maximum Humidity 100    
Minimum Humidity 51    
Precipitation  
Precipitation 0.00 in - - ()
Sea Level Pressure  
Sea Level Pressure 30.17 in    
Wind  
Wind Speed 6 mph ()    
Max Wind Speed 14 mph    
Max Gust Speed -    
Visibility 13.6 miles    
Events      
Averages and records for this station are not official NWS values.
T = Trace of Precipitation, MM = Missing Value Source: Averaged Metar Reports

Daily Weather History Graph

Daily Weather History Graph

Search for Another Location

Airport or City:

Astronomy

Oct. 31, 2013 Rise Set
Actual Time 7:22 AM CET 5:02 PM CET
Civil Twilight 6:47 AM CET 5:37 PM CET
Nautical Twilight 6:07 AM CET 6:17 PM CET
Astronomical Twilight 5:27 AM CET 6:56 PM CET
Moon 3:32 AM CET (10/31) 3:30 PM CET (10/31)
Length of Visible Light 10h 50m
Length of Day
9h 39m
Waning Crescent, 11% of the Moon is Illuminated
Oct 31
Waning Crescent
Nov 3
New
Nov 10
First Quarter
Nov 17
Full
Nov 25
Last Quarter

Hourly Weather History & Observations

Time (CET) Temp. Windchill Dew Point Humidity Pressure Visibility Wind Dir Wind Speed Gust Speed Precip Events Conditions
12:20 AM 42.8 °F 40.1 °F 39.2 °F 87% 30.27 in - South 4.6 mph - N/A   Clear
12:50 AM 42.8 °F 40.1 °F 39.2 °F 87% 30.27 in - SSE 4.6 mph - N/A   Clear
1:00 AM 43 °F - 39 °F 82% 30.28 in 19 mi SSE 4.5 mph - -  
1:20 AM 42.8 °F 40.1 °F 39.2 °F 87% 30.27 in - South 4.6 mph - N/A   Clear
1:50 AM 41.0 °F 38.0 °F 39.2 °F 93% 30.27 in - SSE 4.6 mph - N/A   Clear
2:00 AM 42 °F - 39 °F 84% 30.28 in 19 mi SSE 4.5 mph - -  
2:20 AM 41.0 °F 38.0 °F 39.2 °F 93% 30.24 in - South 4.6 mph - N/A   Clear
2:50 AM 41.0 °F 38.0 °F 39.2 °F 93% 30.24 in - SSE 4.6 mph - N/A   Clear
3:00 AM 41 °F - 39 °F 88% 30.27 in 19 mi SSE 4.5 mph - -  
3:20 AM 41.0 °F 38.0 °F 39.2 °F 93% 30.24 in - SE 4.6 mph - N/A   Clear
3:50 AM 39.2 °F 37.0 °F 37.4 °F 93% 30.24 in - SE 3.5 mph - N/A   Clear
4:20 AM 39.2 °F 37.0 °F 37.4 °F 93% 30.24 in - SE 3.5 mph - N/A   Clear
4:50 AM 39.2 °F 37.0 °F 39.2 °F 100% 30.24 in - SE 3.5 mph - N/A   Clear
5:00 AM 39 °F - 37 °F 92% 30.27 in 19 mi SE 2.2 mph - -  
5:20 AM 39.2 °F 37.0 °F 39.2 °F 100% 30.24 in - SE 3.5 mph - N/A   Clear
5:50 AM 39.2 °F 35.0 °F 37.4 °F 93% 30.24 in - SE 5.8 mph - N/A   Clear
6:00 AM 39 °F - 38 °F 94% 30.26 in 19 mi SE 4.5 mph - -  
6:20 AM 39.2 °F 35.9 °F 37.4 °F 93% 30.24 in - SE 4.6 mph - N/A   Clear
6:50 AM 39.2 °F 35.9 °F 37.4 °F 93% 30.21 in - SE 4.6 mph - N/A   Clear
7:00 AM 38 °F - 37 °F 97% 30.25 in 16 mi SE 4.5 mph - -   Scattered Clouds
7:20 AM 39.2 °F 35.0 °F 37.4 °F 93% 30.21 in - SE 5.8 mph - N/A   Clear
7:50 AM 39.2 °F 35.0 °F 37.4 °F 93% 30.24 in - SE 5.8 mph - N/A   Clear
8:00 AM 40 °F - 38 °F 90% 30.25 in 12 mi SE 4.5 mph - -   Clear
8:20 AM 42.8 °F 38.6 °F 39.2 °F 87% 30.24 in - SSE 6.9 mph - N/A   Clear
8:50 AM 44.6 °F 40.2 °F 41.0 °F 87% 30.21 in - SSE 8.1 mph - N/A   Clear
9:00 AM 44 °F - 40 °F 81% 30.25 in 16 mi SSE 8.9 mph - -   Clear
9:20 AM 46.4 °F 41.9 °F 41.0 °F 81% 30.21 in - South 9.2 mph - N/A   Clear
9:50 AM 48.2 °F - 41.0 °F 76% 30.21 in - South 10.4 mph - N/A   Clear
10:00 AM 47 °F - 42 °F 76% 30.24 in 16 mi South 8.9 mph - -   Clear
10:20 AM 48.2 °F - 42.8 °F 82% 30.21 in - South 9.2 mph - N/A   Clear
10:50 AM 50.0 °F - 42.8 °F 76% 30.21 in - South 10.4 mph - N/A   Clear
11:00 AM 49 °F - 42 °F 70% 30.23 in 16 mi South 8.9 mph - -   Scattered Clouds
11:20 AM 50.0 °F - 42.8 °F 76% 30.21 in - South 10.4 mph - N/A   Clear
11:50 AM 51.8 °F - 44.6 °F 76% 30.18 in - South 9.2 mph - N/A   Clear
12:00 PM 52 °F - 43 °F 63% 30.21 in 19 mi South 8.9 mph - -   Scattered Clouds
12:20 PM 53.6 °F - 42.8 °F 67% 30.18 in - SSW 10.4 mph - N/A   Clear
12:50 PM 53.6 °F - 42.8 °F 67% 30.15 in - South 11.5 mph - N/A   Clear
1:00 PM 54 °F - 43 °F 58% 30.18 in 19 mi South 11.2 mph - -   Scattered Clouds
1:20 PM 53.6 °F - 42.8 °F 67% 30.15 in - SSW 11.5 mph - N/A   Clear
1:50 PM 55.4 °F - 42.8 °F 63% 30.15 in - South 11.5 mph - N/A   Clear
2:00 PM 55 °F - 43 °F 55% 30.17 in 19 mi South 11.2 mph - -   Scattered Clouds
2:20 PM 55.4 °F - 42.8 °F 63% 30.15 in - South 11.5 mph - N/A   Clear
2:50 PM 55.4 °F - 42.8 °F 63% 30.12 in - SSW 10.4 mph - N/A   Clear
3:00 PM 55 °F - 42 °F 51% 30.15 in 22 mi SSW 11.2 mph - -   Scattered Clouds
3:20 PM 53.6 °F - 41.0 °F 62% 30.12 in - South 9.2 mph - N/A   Clear
3:50 PM 53.6 °F - 41.0 °F 62% 30.12 in - South 10.4 mph - N/A   Clear
4:00 PM 54 °F - 41 °F 52% 30.13 in 22 mi South 8.9 mph - -   Scattered Clouds
4:20 PM 53.6 °F - 41.0 °F 62% 30.09 in - South 10.4 mph - N/A   Clear
4:50 PM 51.8 °F - 41.0 °F 67% 30.09 in - South 8.1 mph - N/A   Clear
5:00 PM 52 °F - 41 °F 57% 30.12 in 22 mi South 6.7 mph - -   Scattered Clouds
5:20 PM 51.8 °F - 41.0 °F 67% 30.09 in - South 6.9 mph - N/A   Clear
5:50 PM 51.8 °F - 41.0 °F 67% 30.09 in - South 8.1 mph - N/A   Clear
6:00 PM 51 °F - 41 °F 60% 30.11 in 22 mi South 6.7 mph - -   Partly Cloudy
6:20 PM 50.0 °F - 41.0 °F 71% 30.09 in - South 6.9 mph - N/A   Clear
6:50 PM 50.0 °F - 41.0 °F 71% 30.09 in - South 8.1 mph - N/A   Clear
7:00 PM 50 °F - 42 °F 64% 30.10 in 22 mi South 8.9 mph - -   Scattered Clouds
7:20 PM 50.0 °F - 41.0 °F 71% 30.06 in - South 8.1 mph - N/A   Clear
7:50 PM 50.0 °F - 41.0 °F 71% 30.06 in - South 8.1 mph - N/A   Clear
8:00 PM 50 °F - 41 °F 63% 30.09 in 22 mi South 8.9 mph - -   Scattered Clouds
8:20 PM 50.0 °F - 41.0 °F 71% 30.06 in - South 6.9 mph - N/A   Clear
8:50 PM 50.0 °F - 41.0 °F 71% 30.06 in 6.2 mi South 9.2 mph - N/A   Mostly Cloudy
9:00 PM 51 °F - 41 °F 59% 30.08 in 22 mi South 8.9 mph - -   Mostly Cloudy
9:20 PM 51.8 °F - 41.0 °F 67% 30.06 in 6.2 mi South 9.2 mph - N/A   Mostly Cloudy
9:50 PM 51.8 °F - 41.0 °F 67% 30.06 in 6.2 mi South 8.1 mph - N/A   Mostly Cloudy
10:00 PM 51 °F - 41 °F 59% 30.07 in 22 mi South 8.9 mph - -   Mostly Cloudy
10:20 PM 51.8 °F - 41.0 °F 67% 30.04 in 6.2 mi South 8.1 mph - N/A   Mostly Cloudy
10:50 PM 51.8 °F - 42.8 °F 71% 30.04 in 6.2 mi SSW 9.2 mph - N/A   Mostly Cloudy
11:00 PM 52 °F - 42 °F 60% 30.06 in 22 mi SSW 8.9 mph - -   Mostly Cloudy
11:20 PM 51.8 °F - 42.8 °F 71% 30.04 in 6.2 mi SSW 10.4 mph - N/A   Mostly Cloudy
11:50 PM 51.8 °F - 42.8 °F 71% 30.04 in 6.2 mi SW 13.8 mph - N/A   Mostly Cloudy